TimeCDT,TemperatureF,Dew PointF,Humidity,Sea Level PressureIn,VisibilityMPH,Wind Direction,Wind SpeedMPH,Gust SpeedMPH,PrecipitationIn,Events,Conditions,WindDirDegrees,DateUTC
12:53 AM,64.0,48.0,56,29.85,10.0,ESE,8.1,-,N/A,,Clear,120,2012-11-03 05:53:00
1:53 AM,61.0,50.0,67,29.86,10.0,ESE,6.9,-,N/A,,Clear,120,2012-11-03 06:53:00
2:53 AM,63.0,52.0,67,29.85,10.0,SE,10.4,-,N/A,,Clear,130,2012-11-03 07:53:00
3:53 AM,62.1,52.0,70,29.85,10.0,ESE,11.5,-,N/A,,Clear,120,2012-11-03 08:53:00
4:53 AM,61.0,52.0,72,29.86,10.0,ESE,6.9,-,N/A,,Clear,110,2012-11-03 09:53:00
5:53 AM,57.9,51.1,78,29.89,10.0,Calm,Calm,-,N/A,,Clear,0,2012-11-03 10:53:00
6:53 AM,57.0,51.1,81,29.92,10.0,ENE,3.5,-,N/A,,Overcast,70,2012-11-03 11:53:00
7:53 AM,57.0,52.0,83,29.95,10.0,Calm,Calm,-,N/A,,Partly Cloudy,0,2012-11-03 12:53:00
8:53 AM,59.0,52.0,78,29.98,10.0,SSE,6.9,-,N/A,,Overcast,150,2012-11-03 13:53:00
9:53 AM,61.0,52.0,72,30.02,10.0,North,4.6,-,N/A,,Mostly Cloudy,350,2012-11-03 14:53:00
10:53 AM,60.1,37.0,42,30.04,10.0,North,9.2,-,N/A,,Overcast,360,2012-11-03 15:53:00
11:53 AM,59.0,46.9,64,30.05,10.0,NNE,15.0,-,0.00,,Overcast,20,2012-11-03 16:53:00
12:53 PM,62.1,45.0,53,30.02,10.0,North,13.8,-,0.00,,Overcast,10,2012-11-03 17:53:00
1:53 PM,66.9,44.1,44,30.02,10.0,WNW,12.7,-,N/A,,Scattered Clouds,290,2012-11-03 18:53:00
2:53 PM,70.0,43.0,38,29.99,10.0,NNW,11.5,-,N/A,,Clear,340,2012-11-03 19:53:00
3:53 PM,71.1,43.0,36,29.96,10.0,North,11.5,-,N/A,,Clear,10,2012-11-03 20:53:00
4:53 PM,73.0,43.0,34,29.97,10.0,NNW,8.1,-,N/A,,Clear,330,2012-11-03 21:53:00
5:53 PM,71.1,43.0,36,29.99,10.0,North,10.4,-,N/A,,Clear,360,2012-11-03 22:53:00
6:53 PM,66.9,44.1,44,30.00,10.0,North,5.8,-,N/A,,Clear,10,2012-11-03 23:53:00
7:53 PM,62.1,45.0,53,30.02,10.0,North,5.8,-,N/A,,Clear,360,2012-11-04 00:53:00
8:53 PM,57.0,44.1,62,30.05,10.0,North,4.6,-,N/A,,Clear,10,2012-11-04 01:53:00
9:53 PM,54.0,44.1,69,30.06,10.0,North,5.8,-,N/A,,Clear,360,2012-11-04 02:53:00
10:53 PM,51.1,43.0,74,30.07,-9999.0,North,4.6,-,N/A,,Clear,360,2012-11-04 03:53:00
11:53 PM,51.1,43.0,74,30.09,-9999.0,North,3.5,-,N/A,,Clear,360,2012-11-04 04:53:00